Regional Weather Roundup
Issued by NWS

Home | Current Version | Previous Version | Text Only | Print | Product List | Glossary Off
Versions: 1 2 3 4 5 6 7 8 9 10 11 12 13 14 15 16 17 18 19 20 21 22 23 24 25 26 27 28 29 30 31 32 33 34 35 36 37 38 39 40 41 42 43 44 45 46 47 48 49 50

000
ASUS43 KIND 022009
RWRIN

WEATHER ROUNDUP FOR INDIANA
NATIONAL WEATHER SERVICE INDIANAPOLIS IN
300 PM EST FRI DEC 02 2016

NOTE: "FAIR" INDICATES FEW OR NO CLOUDS BELOW 12,000 FEET WITH NO
SIGNIFICANT WEATHER AND/OR OBSTRUCTIONS TO VISIBILITY.

* - STATION DOES NOT REPORT WEATHER SUCH AS PRECIPITATION OR FOG.

+ - STATION NOT QUALITY CONTROLLED BY THE NATIONAL WEATHER SERVICE.
    USE DATA WITH CAUTION...ESPECIALLY DEWPOINT AND RELATIVE
    HUMIDITY OBSERVATIONS.

INZ001>003-010>013-019-020-022100-
NORTHWEST INDIANA

CITY           SKY/WX    TMP DP  RH WIND       PRES   REMARKS
GARY /AIRPORT/ CLOUDY    41  32  70 W9        30.20R
KNOX *+        CLOUDY    37  16  41 W8        30.19R
LA PORTE +     CLOUDY    39  38  94 NW6       30.19R
MICHIGAN CITY+ CLOUDY    37  30  75 NW7       30.19R
MONTICELLO +   CLOUDY    38  29  69 NW9       30.20R
RENSSELAER +   CLOUDY    41  32  70 W10       30.20S
VALPARAISO     CLOUDY    40  30  67 W8        30.20R

$$

LMZ046-743>745-022100-
SOUTHERN LAKE MICHIGAN

STATION/POSITION TIME  TEMP    WIND        PRES    WAVE
                       AIR SEA DIR/SP/G            HT
                 (UTC) (F)     (DEG/KT/KT) (MB)    (FT)
MICHIGAN CITY    1940   39     300/ 14/ 15   N/A

$$

INZ004-005-014>016-021>024-022100-
NORTH CENTRAL INDIANA

CITY           SKY/WX    TMP DP  RH WIND       PRES   REMARKS
ELKHART        CLOUDY   N/A N/A N/A NW12      30.17R
GOSHEN         CLOUDY    38  32  79 NW9       30.16R
LOGANSPORT +   CLOUDY    36  32  87 NW6       30.20S
PERU/GRISSOM   CLOUDY    37  36  95 W9        30.18R
ROCHESTER +    CLOUDY    41  34  75 W10       30.18R
SOUTH BEND     CLOUDY    37  29  72 NW14G20   30.18R
WARSAW +       DRIZZLE   36  32  87 W12       30.17R

$$

INZ006>009-017-018-025>027-022100-
NORTHEAST INDIANA

CITY           SKY/WX    TMP DP  RH WIND       PRES   REMARKS
ANGOLA *+      CLOUDY    37  30  75 NW12      30.13R
AUBURN +       CLOUDY    37  32  81 W12G17    30.16R
FORT WAYNE     CLOUDY    40  31  70 W15       30.16R
HUNTINGTON +   CLOUDY    38  31  74 W12       30.17R
KENDALLVILLE + CLOUDY    37  34  86 W7        30.14R

$$

INZ028-029-035-036-043>045-051>053-022100-
WEST CENTRAL INDIANA

CITY           SKY/WX    TMP DP  RH WIND       PRES   REMARKS
CRAWFORDSVL +  CLOUDY    37  32  81 W6        30.21S
GREENCASTLE +  CLOUDY    37  34  87 SW5       30.22S
LAFAYETTE      CLOUDY    39  33  79 W13       30.21R
TERRE HAUTE    CLOUDY    42  31  64 W10       30.24R

$$

INZ030>032-037>040-046>048-054>057-064-065-022100-
CENTRAL INDIANA

CITY           SKY/WX    TMP DP  RH WIND       PRES   REMARKS
ANDERSON       CLOUDY    39  30  70 W12       30.20R
CP ATTERBURY + CLOUDY    41  30  65 W7        30.23R
COLUMBUS       CLOUDY    39  30  70 NW9       30.23R
FISHERS *+     CLOUDY    37  32  81 W8        30.21
FRANKFORT +    CLOUDY    41  34  76 W12       30.22R
GREENWOOD *+   CLOUDY    40  32  74 W6        30.21S
INDIANAPOLIS   CLOUDY    40  32  73 W10       30.21R
-EAGLE CREEK   CLOUDY    40  31  70 W10       30.21R
KOKOMO +       LGT RAIN  36  33  89 W14       30.20R
MARION +       CLOUDY    38  32  79 W10       30.19S
MT COMFORT *+  CLOUDY    39  30  70 W12       30.21R
SHELBYVILLE    CLOUDY    41  31  67 W10       30.20S
ZIONSVILLE +   CLOUDY    38  30  73 W10       30.21R

$$

INZ033-034-041-042-049-050-058-059-022100-
EAST CENTRAL INDIANA

CITY           SKY/WX    TMP DP  RH WIND       PRES   REMARKS
MUNCIE         CLOUDY    40  29  64 W9        30.19R

$$

INZ060-061-067>069-081>083-085>088-022100-
SOUTHWEST INDIANA

CITY           SKY/WX    TMP DP  RH WIND       PRES   REMARKS
EVANSVILLE     SUNNY     47  30  51 NW8       30.27S
HUNTINGBURG *+ PTSUNNY   45  30  55 NW5       30.26R
WASHINGTON +   CLOUDY    42  33  69 NW6       30.26R

$$

INZ062-063-066-070>080-084-089>092-022100-
SOUTH CENTRAL AND SOUTHEAST INDIANA

CITY           SKY/WX    TMP DP  RH WIND       PRES   REMARKS
BLOOMINGTON    CLOUDY    41  29  62 W7        30.23R
MADISON *+     CLOUDY    41  30  65 W7        30.25R
NORTH VERNON + CLOUDY    41  36  81 W8        30.22S
SEYMOUR +      CLOUDY    43  30  61 W6        30.24R

$$





USA.gov is the U.S. government's official web portal to all federal, state and local government web resources and services.